Weather History for Sherman-Denison, TX

Change the Weather History Date:

Friday, September 20, 2013

  Actual Average (KDFW) Record (KDFW)
Temperature  
Mean Temperature 70 °F 76 °F  
Max Temperature 74 °F 87 °F 102 °F (1953)
Min Temperature 67 °F 66 °F 46 °F (1971)
Degree Days  
Heating Degree Days 0 0  
Month to date heating degree days 0  
Since 1 July heating degree days 0  
Cooling Degree Days 6 12  
Month to date cooling degree days 297  
Year to date cooling degree days 2479  
Growing Degree Days 20 (Base 50)    
Moisture  
Dew Point 68 °F    
Average Humidity 87    
Maximum Humidity 95    
Minimum Humidity 67    
Precipitation  
Precipitation 0.18 in 0.08 in 3.00 in (1964)
Month to date precipitation 1.78  
Year to date precipitation 25.89  
Sea Level Pressure  
Sea Level Pressure 29.93 in    
Wind  
Wind Speed 7 mph (NNE)    
Max Wind Speed 16 mph    
Max Gust Speed 23 mph    
Visibility 10 miles    
Events Rain    
T = Trace of Precipitation, MM = Missing Value Source: NWS Daily Summary

Daily Weather History Graph

Daily Weather History Graph

Search for Another Location

Airport:

Trip Planner

Search our weather history database for the weather conditions in past years. The results will help you decide how hot, cold, wet, or windy it might be!

Date:

Astronomy

Sep. 20, 2013 Rise Set
Actual Time 7:13 AM CDT 7:25 PM CDT
Civil Twilight 6:48 AM CDT 7:50 PM CDT
Nautical Twilight 6:19 AM CDT 8:19 PM CDT
Astronomical Twilight 5:50 AM CDT 8:49 PM CDT
Moon 8:08 PM CDT (9/20) 8:23 AM CDT (9/20)
Length of Visible Light 13h 01m
Length of Day
12h 12m
Full, 98% of the Moon is Illuminated
Sep 20
Full
Sep 26
Last Quarter
Oct 4
New
Oct 11
First Quarter
Oct 18
Full

Hourly Weather History & Observations

Time (CDT) Temp. Dew Point Humidity Pressure Visibility Wind Dir Wind Speed Gust Speed Precip Events Conditions
12:15 AM 73.0 °F 68.2 °F 85% 29.97 in 10.0 mi SSE 5.8 mph - N/A Rain Light Rain
12:35 AM 72.5 °F 68.0 °F 86% 29.97 in 10.0 mi SSE 6.9 mph - 0.02 in Rain Rain
12:55 AM 72.0 °F 68.2 °F 88% 29.95 in 10.0 mi SE 5.8 mph - 0.03 in Rain Light Rain
1:15 AM 72.0 °F 68.7 °F 89% 29.94 in 10.0 mi ESE 3.5 mph - 0.01 in   Light Drizzle
1:35 AM 72.0 °F 68.0 °F 87% 29.95 in 10.0 mi South 4.6 mph - 0.01 in Rain Light Rain
1:55 AM 71.6 °F 68.2 °F 89% 29.95 in 10.0 mi Calm Calm - 0.02 in Rain Light Rain
2:15 AM 71.6 °F 68.9 °F 91% 29.95 in 10.0 mi Calm Calm - N/A   Scattered Clouds
2:35 AM 71.6 °F 69.3 °F 92% 29.95 in 10.0 mi North 3.5 mph - N/A   Light Drizzle
2:55 AM 71.8 °F 69.6 °F 93% 29.95 in 10.0 mi Calm Calm - N/A   Light Drizzle
3:15 AM 71.6 °F 69.4 °F 93% 29.95 in 10.0 mi NNW 4.6 mph - 0.01 in   Mostly Cloudy
3:35 AM 71.4 °F 69.4 °F 93% 29.94 in 10.0 mi NNW 4.6 mph - 0.01 in   Mostly Cloudy
3:55 AM 71.2 °F 69.1 °F 93% 29.93 in 10.0 mi North 3.5 mph - 0.01 in   Mostly Cloudy
4:15 AM 71.6 °F 69.1 °F 92% 29.93 in 10.0 mi NNE 3.5 mph - N/A   Scattered Clouds
4:35 AM 71.6 °F 69.1 °F 92% 29.93 in 10.0 mi NE 5.8 mph - N/A   Mostly Cloudy
4:55 AM 72.0 °F 69.8 °F 93% 29.93 in 10.0 mi NE 4.6 mph - N/A Rain Light Rain
5:15 AM 72.7 °F 70.5 °F 93% 29.92 in 10.0 mi NE 6.9 mph - N/A   Overcast
5:35 AM 72.7 °F 70.7 °F 93% 29.93 in 10.0 mi ENE 5.8 mph - N/A Rain Light Rain
5:55 AM 72.7 °F 70.7 °F 93% 29.93 in 7.0 mi NE 5.8 mph - N/A Rain Light Rain
6:15 AM 72.7 °F 70.7 °F 93% 29.92 in 7.0 mi NNE 8.1 mph - 0.01 in   Drizzle
6:35 AM 72.1 °F 70.0 °F 93% 29.92 in 10.0 mi NE 10.4 mph - 0.01 in Rain Rain
6:55 AM 72.0 °F 69.8 °F 93% 29.92 in 10.0 mi NE 8.1 mph - 0.02 in   Light Drizzle
7:15 AM 72.0 °F 69.8 °F 93% 29.92 in 10.0 mi NE 9.2 mph - 0.01 in Rain Light Rain
7:35 AM 71.8 °F 69.8 °F 93% 29.92 in 10.0 mi NE 3.5 mph - 0.02 in Rain Light Rain
7:55 AM 71.6 °F 70.0 °F 95% 29.93 in 10.0 mi NE 4.6 mph - 0.02 in Rain Light Rain
8:15 AM 71.6 °F 70.0 °F 95% 29.92 in 7.0 mi NE 3.5 mph - 0.01 in Rain Rain
8:35 AM 71.6 °F 70.0 °F 95% 29.91 in 7.0 mi NE 5.8 mph - 0.02 in Rain Light Rain
8:55 AM 71.8 °F 70.2 °F 95% 29.91 in 10.0 mi NE 9.2 mph - 0.02 in   Light Drizzle
9:15 AM 72.0 °F 70.3 °F 95% 29.91 in 10.0 mi NE 11.5 mph - N/A   Light Drizzle
9:35 AM 72.1 °F 70.7 °F 95% 29.91 in 10.0 mi NE 10.4 mph - N/A   Overcast
9:55 AM 72.1 °F 70.7 °F 95% 29.93 in 10.0 mi NNE 6.9 mph - N/A   Overcast
10:15 AM 72.1 °F 70.7 °F 95% 29.94 in 10.0 mi NNE 9.2 mph - N/A Rain Light Rain
10:35 AM 71.6 °F 70.0 °F 95% 29.95 in 10.0 mi NNE 11.5 mph - 0.01 in Rain Light Rain
10:55 AM 71.6 °F 69.8 °F 94% 29.97 in 10.0 mi NE 9.2 mph - 0.02 in Rain Rain
11:15 AM 71.4 °F 69.6 °F 94% 29.96 in 7.0 mi NE 11.5 mph 18.4 mph 0.01 in Rain Light Rain
11:35 AM 71.4 °F 69.6 °F 94% 29.96 in 7.0 mi NE 12.7 mph 18.4 mph 0.03 in Rain Light Rain
11:55 AM 72.0 °F 69.8 °F 93% 29.95 in 10.0 mi NE 11.5 mph 16.1 mph 0.04 in Rain Light Rain
12:15 PM 72.5 °F 69.8 °F 91% 29.95 in 10.0 mi NE 8.1 mph - N/A Rain Light Rain
12:35 PM 72.7 °F 70.0 °F 91% 29.94 in 10.0 mi NE 9.2 mph - N/A Rain Light Rain
12:55 PM 72.3 °F 68.9 °F 89% 29.93 in 10.0 mi NE 10.4 mph - N/A   Overcast
1:15 PM 73.2 °F 69.3 °F 87% 29.93 in 10.0 mi NE 9.2 mph - N/A   Scattered Clouds
1:35 PM 73.6 °F 69.6 °F 87% 29.92 in 10.0 mi NE 5.8 mph - N/A   Clear
1:55 PM 73.4 °F 69.1 °F 86% 29.93 in 10.0 mi NE 4.6 mph - N/A Rain Light Rain
2:15 PM 74.3 °F 68.7 °F 83% 29.92 in 10.0 mi NNE 9.2 mph - N/A   Light Drizzle
2:35 PM 73.8 °F 68.7 °F 84% 29.91 in 10.0 mi NE 9.2 mph - N/A   Light Drizzle
2:55 PM 74.3 °F 68.9 °F 83% 29.91 in 10.0 mi NNE 4.6 mph - N/A   Scattered Clouds
3:15 PM 74.3 °F 69.1 °F 84% 29.91 in 10.0 mi North 8.1 mph - N/A Rain Light Rain
3:35 PM 73.8 °F 69.6 °F 87% 29.91 in 10.0 mi North 4.6 mph 21.9 mph N/A Rain Light Rain
3:55 PM 74.1 °F 69.8 °F 86% 29.91 in 10.0 mi North 5.8 mph 16.1 mph N/A   Light Drizzle
4:15 PM 73.4 °F 68.4 °F 84% 29.90 in 10.0 mi North 8.1 mph - N/A Rain Light Rain
4:35 PM 73.6 °F 68.7 °F 85% 29.90 in 10.0 mi North 4.6 mph - N/A   Mostly Cloudy
4:55 PM 73.4 °F 68.2 °F 84% 29.90 in 10.0 mi North 3.5 mph 19.6 mph N/A   Overcast
5:15 PM 73.0 °F 68.2 °F 85% 29.91 in 10.0 mi North 4.6 mph - N/A   Light Drizzle
5:35 PM 72.9 °F 68.9 °F 87% 29.91 in 10.0 mi North 8.1 mph - N/A Rain Light Rain
5:55 PM 73.0 °F 68.2 °F 85% 29.92 in 10.0 mi North 10.4 mph - N/A   Light Drizzle
6:15 PM 73.2 °F 68.0 °F 84% 29.91 in 10.0 mi North 10.4 mph - N/A   Mostly Cloudy
6:35 PM 73.2 °F 67.8 °F 83% 29.91 in 10.0 mi North 8.1 mph - N/A   Overcast
6:55 PM 73.0 °F 67.5 °F 83% 29.91 in 10.0 mi North 12.7 mph - N/A   Overcast
7:15 PM 72.5 °F 67.1 °F 83% 29.92 in 10.0 mi North 12.7 mph 16.1 mph N/A   Overcast
7:35 PM 72.1 °F 66.4 °F 82% 29.92 in 10.0 mi North 13.8 mph 19.6 mph N/A   Overcast
7:55 PM 71.8 °F 65.7 °F 81% 29.93 in 10.0 mi North 16.1 mph 23.0 mph N/A   Overcast
8:15 PM 71.6 °F 65.5 °F 81% 29.93 in 10.0 mi North 16.1 mph - N/A   Overcast
8:35 PM 70.9 °F 64.9 °F 81% 29.94 in 10.0 mi North 13.8 mph - N/A   Overcast
8:55 PM 70.3 °F 63.5 °F 79% 29.94 in 10.0 mi North 13.8 mph 18.4 mph N/A   Mostly Cloudy
9:15 PM 70.0 °F 62.1 °F 76% 29.94 in 10.0 mi NNE 15.0 mph - N/A   Clear
9:35 PM 69.8 °F 61.7 °F 75% 29.95 in 10.0 mi North 11.5 mph - N/A   Scattered Clouds
9:55 PM 69.3 °F 61.3 °F 76% 29.95 in 10.0 mi North 12.7 mph 17.3 mph N/A   Clear
10:15 PM 69.3 °F 59.9 °F 72% 29.96 in 10.0 mi North 15.0 mph - N/A   Mostly Cloudy
10:35 PM 68.9 °F 57.9 °F 68% 29.95 in 10.0 mi NNE 15.0 mph 19.6 mph N/A   Scattered Clouds
10:55 PM 68.4 °F 57.9 °F 69% 29.97 in 10.0 mi North 13.8 mph 18.4 mph N/A   Scattered Clouds
11:15 PM 68.4 °F 57.2 °F 67% 29.97 in 10.0 mi North 15.0 mph 18.4 mph N/A   Scattered Clouds
11:35 PM 67.8 °F 56.7 °F 67% 29.97 in 10.0 mi NNE 11.5 mph - N/A   Scattered Clouds
11:55 PM 67.6 °F 56.7 °F 68% 29.98 in 10.0 mi North 9.2 mph 16.1 mph N/A   Clear